Home > Weather > Kuching > Past weeks

Flag for Malaysia Past Weather in Kuching, Malaysia — Yesterday and Last 2 Weeks

Now
75 °F

Light rain. Broken clouds.


Feels Like: 75 °F
Forecast: 75 / 87 °F
Wind: 8 mph from West

Location: Kuching Airport

Current Time: Jun 27, 2016 at 7:16:30 PM

Latest Report: Jun 27, 2016 at 6:30 PM


Visibility: N/A

Pressure: 29.83 "Hg

Humidity: 83%

Dew Point: 70 °F

Location of KuchingLocation

Past Weather in Kuching — Graph

°F

Kuching Temperature Yesterday

Maximum temperature yesterday: 91 °F (at 2:30 PM)
Minimum temperature yesterday: 73 °F (at 10:00 PM)
Average temperature yesterday: 79 °F

High & Low Weather Summary for the Past Weeks

 TemperatureHumidityPressure
High93 °F (Jun 14, 2:30 PM)100% (Jun 12, 10:00 PM)29.92 "Hg (Jun 12, 10:00 PM)
Low73 °F (Jun 14, 5:00 AM)53% (Jun 14, 2:30 PM)29.71 "Hg (Jun 16, 2:30 PM)
Average80 °F87%29.81 "Hg
* Reported Jun 12 6:00 PM — Jun 27 6:00 PM, Kuching, Weather by CustomWeather, © 2016

Note: Actual official high and low records may vary slightly from our data, if they occured in-between our weather recording intervals... More about our weather records

Advertising

Kuching Weather History for the Previous 24 Hours

Scroll right to see more
 ConditionsComfort  
Time TempWeatherWind HumidityBarometerVisibility
6:00 PM
Mon, Jun 27
75 °FLight rain. Broken clouds.13 mph89%29.83 "HgN/A
5:30 PM77 °FBroken clouds.16 mph83%29.80 "HgN/A
5:00 PM79 °FSprinkles. Broken clouds.21 mph79%29.80 "HgN/A
4:30 PM86 °FBroken clouds.8 mph66%29.77 "HgN/A
4:00 PM88 °FBroken clouds.12 mph59%29.77 "HgN/A
3:30 PM90 °FBroken clouds.12 mph55%29.77 "HgN/A
3:00 PM90 °FBroken clouds.9 mph67%29.77 "HgN/A
2:30 PM90 °FBroken clouds.7 mph67%29.77 "HgN/A
2:00 PM91 °FBroken clouds.7 mph59%29.80 "HgN/A
1:30 PM90 °FBroken clouds.5 mph67%29.80 "HgN/A
1:00 PM88 °FBroken clouds.3 mph70%29.80 "HgN/A
12:30 PM88 °FPartly sunny.5 mph70%29.83 "HgN/A
12:00 PM86 °FBroken clouds.3 mph75%29.83 "HgN/A
11:30 AM86 °FBroken clouds.5 mph75%29.83 "HgN/A
11:00 AM84 °FBroken clouds.5 mph79%29.83 "HgN/A
10:30 AM82 °FBroken clouds.6 mph84%29.83 "HgN/A
10:00 AM81 °FPartly sunny.6 mph84%29.83 "HgN/A
9:30 AM79 °FBroken clouds.6 mph89%29.83 "HgN/A
9:00 AM79 °FBroken clouds.5 mph89%29.83 "HgN/A
8:30 AM77 °FBroken clouds.3 mph89%29.83 "HgN/A
8:00 AM75 °FPartly sunny.2 mph94%29.83 "HgN/A
7:30 AM73 °FPartly sunny.1 mph94%29.83 "HgN/A
7:00 AM73 °FPartly sunny.2 mph94%29.83 "HgN/A
6:30 AM73 °FPassing clouds.2 mph100%29.83 "HgN/A
6:00 AM73 °FPartly cloudy.1 mph100%29.83 "HgN/A
5:30 AM73 °FPartly cloudy.1 mph94%29.83 "HgN/A
5:00 AM73 °FPartly cloudy.2 mph94%29.83 "HgN/A
4:30 AM73 °FPartly cloudy.2 mph100%29.83 "HgN/A
4:00 AM73 °FPartly cloudy.3 mph100%29.83 "HgN/A
3:30 AM73 °FPartly cloudy.2 mph100%29.83 "HgN/A
3:00 AM73 °FPartly cloudy.1 mph100%29.83 "HgN/A
2:30 AM73 °FPartly cloudy.2 mph100%29.83 "HgN/A
2:00 AM73 °FPartly cloudy.3 mph100%29.83 "HgN/A
1:30 AM75 °FPartly cloudy.3 mph94%29.83 "HgN/A
1:00 AM73 °FPartly cloudy.2 mph100%29.86 "HgN/A
12:30 AM75 °FPartly cloudy.2 mph94%29.86 "HgN/A
12:00 AM75 °FPartly cloudy.2 mph94%29.86 "HgN/A
11:30 PM
Sun, Jun 26
75 °FPartly cloudy.No wind94%29.86 "HgN/A
11:00 PM73 °FPartly cloudy.2 mph100%29.86 "HgN/A
10:30 PM73 °FLight rain. Partly cloudy.7 mph100%29.86 "Hg5 mi
10:00 PM73 °FLight rain. Partly cloudy.8 mph100%29.86 "Hg4 mi
9:30 PM75 °FRain. Partly cloudy.9 mph94%29.86 "Hg2 mi
9:00 PM75 °FRain. Partly cloudy.7 mph94%29.86 "Hg2 mi
8:30 PM75 °FRain. Partly cloudy.9 mph94%29.86 "Hg2 mi
8:00 PM75 °FHeavy rain. Passing clouds.14 mph94%29.86 "Hg1 mi
7:30 PM75 °FRain. Passing clouds.7 mph94%29.83 "Hg2 mi
7:00 PM75 °FLight rain. Partly cloudy.8 mph94%29.83 "HgN/A
Weather by CustomWeather, © 2016

See weather overviewHow to use our weather pages